Location: ?????????
(42.1392°N, 44.1931°E)
Time: 01:20:17
(UTC+00:00)

Daily predictions for brighter satellites

Satellite Brightness Start Highest point End
(mag) Time Altitude Azimuth Time Altitude Azimuth Time Altitude Azimuth
Cosmos 1151 Rocket 4.1 00:00:18 10° N 00:04:33 46° ENE 00:08:46 10° SSE
STARLINK-1014 3.6 00:02:47 21° SW 00:05:28 75° SE 00:09:35 10° NE
Cosmos 2151 3.0 00:03:55 16° SSW 00:07:16 72° W 00:11:35 10° N
STARLINK-81 3.3 00:05:07 20° WSW 00:07:29 79° NW 00:11:07 10° NE
H-2A R/B 2.6 00:03:48 10° SSE 00:08:10 64° ENE 00:12:38 10° N
Cosmos 1766 Rocket 3.6 00:04:41 11° S 00:08:50 78° E 00:13:09 10° N
STARLINK-54 3.4 00:06:51 19° WSW 00:09:19 69° NW 00:12:56 10° NE
Lacrosse 5 rocket 3.1 00:06:23 10° S 00:09:36 23° SE 00:12:42 10° ENE
STARLINK-1025 3.6 00:07:33 19° SW 00:10:27 82° SE 00:14:36 10° NE
STARLINK-77 3.3 00:08:15 19° WSW 00:10:44 74° NW 00:14:22 10° NE
Okean 3 Rocket 3.6 00:07:19 13° S 00:11:26 84° W 00:16:00 10° N
Spot 4 Rocket 4.1 00:06:53 10° NNE 00:12:04 81° ESE 00:17:11 10° SSW
SL-16 R/B 3.9 00:10:23 15° SW 00:13:11 20° W 00:17:32 10° NW
GEOS 3 Rocket 4.0 00:08:31 10° S 00:13:22 41° WSW 00:18:20 10° NW
STARLINK-1017 3.6 00:12:18 17° SW 00:15:24 89° SE 00:19:33 10° NE
STARLINK-79 3.4 00:12:57 17° WSW 00:15:37 67° NW 00:19:15 10° NE
STARLINK-78 3.5 00:14:31 16° WSW 00:17:16 64° NW 00:20:53 10° NE
Cosmos 1408 3.6 00:15:11 17° SW 00:17:21 30° WNW 00:20:38 10° NNW
Cosmos 1339 Rocket 4.5 00:12:07 10° NNW 00:18:13 72° W 00:24:22 10° S
STARLINK-52 2.8 00:15:44 10° WNW 00:18:55 63° SW 00:22:04 10° SE
STARLINK-57 3.6 00:16:11 15° WSW 00:19:02 59° NNW 00:22:37 10° NE
Meteor 2-12 Rocket 4.4 00:13:34 10° S 00:19:36 82° W 00:25:42 10° N
STARLINK-1023 3.6 00:17:04 16° SW 00:20:22 84° NW 00:24:32 10° NE
STARLINK-49 3.6 00:17:39 15° WSW 00:20:32 60° NNW 00:24:07 10° NE
SL-08 R/B 3.6 00:16:28 10° S 00:20:53 45° W 00:25:20 10° NNW
STARLINK-27 3.6 00:19:13 14° WSW 00:22:09 58° NW 00:25:46 10° NE
Cosmos 1825 2.8 00:20:38 15° SW 00:23:24 40° WNW 00:26:58 10° N
STARLINK-74 3.7 00:20:46 14° WSW 00:23:47 57° NNW 00:27:22 10° NE
Cosmos 1538 Rocket 4.1 00:19:00 12° SSW 00:24:05 82° WNW 00:29:30 10° NNE
STARLINK-1007 3.7 00:21:54 14° WSW 00:25:24 78° NW 00:29:33 10° NE
STARLINK-39 3.7 00:22:21 13° WSW 00:25:26 55° NNW 00:29:00 10° NE
MSX 4.4 00:20:28 10° NNE 00:26:08 56° E 00:31:44 10° S
Cosmos 1844 Rocket 2.6 00:20:32 10° NNW 00:26:09 75° WSW 00:31:41 10° SSE
STARLINK-31 3.8 00:23:56 13° WSW 00:27:06 53° NNW 00:30:40 10° NE
SL-16 R/B 3.8 00:23:00 10° WSW 00:27:26 23° NW 00:31:53 10° N
STARLINK-69 3.9 00:25:36 12° WSW 00:28:50 47° NNW 00:32:20 10° NE
STARLINK-1048 3.7 00:26:40 13° WSW 00:30:21 72° NW 00:34:31 10° NE
STARLINK-21 3.9 00:27:07 11° WSW 00:30:25 49° NNW 00:33:57 10° NE
CZ-2D R/B 4.1 00:28:46 10° NNW 00:31:03 13° WNW 00:33:19 10° W
COSMOS 2428 3.1 00:25:40 10° S 00:31:14 62° ESE 00:36:51 10° NNE
STARLINK-45 4.1 00:28:46 10° WSW 00:32:12 44° NNW 00:35:42 10° NE
STARLINK-1444 4.0 00:34:00 14° SW 00:34:03 14° SW 00:35:30 10° S
STARLINK-1452 4.0 00:34:41 14° SW 00:34:41 14° SW 00:36:05 10° S
STARLINK-76 4.0 00:31:48 10° WSW 00:35:18 45° NNW 00:38:49 10° NE
STARLINK-1049 3.8 00:31:28 11° WSW 00:35:21 66° NW 00:39:30 10° NE
STARLINK-1392 4.1 00:35:44 13° SW 00:35:44 13° SW 00:36:44 10° SSW
STARLINK-1399 4.1 00:35:43 13° SW 00:35:43 13° SW 00:36:48 10° SSW
STARLINK-1393 4.1 00:35:46 13° SW 00:35:46 13° SW 00:36:49 10° SSW
STARLINK-1394 4.1 00:35:48 13° SW 00:35:48 13° SW 00:36:52 10° SSW
STARLINK-1395 4.1 00:35:55 13° SW 00:35:55 13° SW 00:36:54 10° SSW
STARLINK-1397 4.1 00:35:49 13° SW 00:35:49 13° SW 00:36:55 10° SSW
STARLINK-1396 4.1 00:35:50 13° SW 00:35:50 13° SW 00:36:56 10° SSW
STARLINK-1414 4.1 00:35:53 13° SW 00:35:53 13° SW 00:36:55 10° SSW
STARLINK-70 4.1 00:32:06 10° WSW 00:35:37 43° NNW 00:39:09 10° NE
STARLINK-1408 4.1 00:35:57 13° SW 00:35:57 13° SW 00:36:58 10° SSW
STARLINK-1404 4.1 00:35:54 13° SW 00:35:54 13° SW 00:37:01 10° SSW
STARLINK-1416 4.1 00:35:56 13° SW 00:35:56 13° SW 00:37:01 10° SSW
STARLINK-1415 4.1 00:35:53 13° SW 00:35:53 13° SW 00:37:03 10° SSW
STARLINK-1406 4.1 00:36:03 13° SW 00:36:03 13° SW 00:37:03 10° SSW
STARLINK-1450 4.1 00:35:54 13° SW 00:35:54 13° SW 00:37:06 10° SSW
STARLINK-1401 4.1 00:35:56 13° SW 00:35:56 13° SW 00:37:06 10° SSW
STARLINK-1417 4.1 00:35:59 13° SW 00:35:59 13° SW 00:37:10 10° SSW
STARLINK-1413 4.1 00:36:00 13° SW 00:36:00 13° SW 00:37:11 10° SSW
STARLINK-1402 4.1 00:36:00 13° SW 00:36:00 13° SW 00:37:11 10° SSW
STARLINK-1419 4.1 00:36:02 13° SW 00:36:02 13° SW 00:37:11 10° SSW
STARLINK-1422 4.1 00:36:06 13° SW 00:36:06 13° SW 00:37:17 10° SSW
STARLINK-1453 4.1 00:36:03 13° SW 00:36:03 13° SW 00:37:19 10° SSW
STARLINK-1398 4.1 00:36:02 14° SW 00:36:02 14° SW 00:37:21 10° SSW
STARLINK-1420 4.1 00:36:07 13° SW 00:36:07 13° SW 00:37:21 10° SSW
STARLINK-1440 4.1 00:36:08 13° SW 00:36:08 13° SW 00:37:24 10° SSW
STARLINK-1460 4.1 00:36:09 13° SW 00:36:09 13° SW 00:37:24 10° SSW
STARLINK-1436 (VISORSAT) 4.1 00:36:03 14° SW 00:36:06 14° SW 00:37:26 10° SSW
STARLINK-1410 4.1 00:36:15 13° SW 00:36:15 13° SW 00:37:28 10° SSW
STARLINK-1423 4.1 00:36:18 13° SW 00:36:18 13° SW 00:37:28 10° SSW
STARLINK-1421 4.1 00:36:18 13° SW 00:36:18 13° SW 00:37:28 10° SSW
STARLINK-1400 4.1 00:36:15 13° SW 00:36:15 13° SW 00:37:28 10° SSW
STARLINK-1454 4.1 00:36:15 13° SW 00:36:15 13° SW 00:37:30 10° SSW
STARLINK-1458 4.1 00:36:19 13° SW 00:36:19 13° SW 00:37:31 10° SSW
STARLINK-1445 4.1 00:36:18 13° SW 00:36:18 13° SW 00:37:35 10° SSW
STARLINK-1407 4.1 00:36:22 13° SW 00:36:22 13° SW 00:37:36 10° SSW
STARLINK-1405 4.1 00:36:31 13° SW 00:36:31 13° SW 00:37:35 10° SSW
STARLINK-1446 4.1 00:36:21 13° SW 00:36:21 13° SW 00:37:37 10° SSW
STARLINK-1370 4.1 00:36:24 13° SW 00:36:24 13° SW 00:37:39 10° SSW
STARLINK-1439 4.1 00:36:35 13° SW 00:36:35 13° SW 00:37:38 10° SSW
STARLINK-1456 4.1 00:36:26 13° SW 00:36:26 13° SW 00:37:40 10° SSW
STARLINK-1457 4.1 00:36:26 13° SW 00:36:26 13° SW 00:37:40 10° SSW
STARLINK-1451 4.1 00:36:27 13° SW 00:36:27 13° SW 00:37:40 10° SSW
STARLINK-1409 4.1 00:36:28 13° SW 00:36:28 13° SW 00:37:40 10° SSW
STARLINK-1447 4.1 00:36:25 13° SW 00:36:25 13° SW 00:37:42 10° SSW
STARLINK-1455 4.1 00:36:27 13° SW 00:36:27 13° SW 00:37:42 10° SSW
STARLINK-1437 4.1 00:36:28 13° SW 00:36:28 13° SW 00:37:43 10° SSW
STARLINK-1441 4.1 00:36:27 13° SW 00:36:27 13° SW 00:37:44 10° SSW
STARLINK-1443 4.1 00:36:27 13° SW 00:36:29 13° SW 00:37:48 10° SSW
STARLINK-1351 4.1 00:36:32 13° SW 00:36:32 13° SW 00:37:48 10° SSW
STARLINK-1418 4.1 00:36:32 13° SW 00:36:32 13° SW 00:37:48 10° SSW
STARLINK-1403 4.1 00:36:31 13° SW 00:36:31 13° SW 00:37:49 10° SSW
STARLINK-1434 4.1 00:36:31 13° SW 00:36:32 13° SW 00:37:50 10° SSW
STARLINK-1442 4.1 00:36:32 13° SW 00:36:32 13° SW 00:37:50 10° SSW
STARLINK-1448 4.1 00:36:34 13° SW 00:36:34 13° SW 00:37:52 10° SSW
STARLINK-1433 4.1 00:36:36 13° SW 00:36:36 13° SW 00:37:52 10° SSW
STARLINK-1449 4.1 00:36:36 13° SW 00:36:37 13° SW 00:37:54 10° SSW
STARLINK-1438 4.1 00:36:43 13° SW 00:36:43 13° SW 00:37:57 10° SSW
STARLINK-1411 4.1 00:36:48 13° SW 00:36:48 13° SW 00:38:04 10° SSW
STARLINK-1412 4.1 00:36:47 13° SW 00:36:47 13° SW 00:38:05 10° SSW
STARLINK-23 4.1 00:33:27 10° WSW 00:36:56 44° NNW 00:40:26 10° NE
STARLINK-32 4.1 00:35:04 10° WSW 00:38:30 42° NNW 00:41:57 10° NE
Cosmos 2366 rocket 4.3 00:33:24 10° SSW 00:39:29 54° WNW 00:45:41 10° N
CZ-4C R/B 3.1 00:36:05 10° S 00:39:41 63° W 00:43:18 10° NNW
STARLINK-40 4.2 00:36:44 10° WSW 00:40:12 42° NNW 00:43:40 10° NE
STARLINK-1051 3.9 00:36:13 10° WSW 00:40:19 61° NNW 00:44:26 10° NE
Cosmos 1743 Rocket 4.4 00:37:14 10° S 00:41:30 51° E 00:45:45 10° NNE
STARLINK-44 4.2 00:38:20 10° WSW 00:41:47 41° NNW 00:45:15 10° NE
STARLINK-1377 4.5 00:37:53 10° NW 00:41:49 52° NNE 00:45:43 10° ESE
BREEZE-M R/B 3.2 00:40:38 10° NW 00:43:31 42° NNE 00:45:51 10° E
STARLINK-37 4.4 00:40:14 10° W 00:43:39 37° NNW 00:47:03 10° NE
STARLINK-36 4.3 00:41:37 10° W 00:45:03 39° NNW 00:48:29 10° NE
Cosmos 1340 3.2 00:41:42 10° S 00:45:24 59° E 00:49:07 10° NNE
STARLINK-1353 4.4 00:42:12 10° NW 00:46:09 56° NNE 00:50:05 10° ESE
FALCON 9 DEB 3.2 00:43:57 10° WNW 00:47:22 58° SW 00:50:46 10° SE
Cosmos 2278 Rocket 4.0 00:42:38 10° N 00:47:53 37° ENE 00:53:06 10° SE
STARLINK-63 4.5 00:45:07 10° W 00:48:29 35° NNW 00:51:50 10° NE
Cosmos 2360 Rocket 3.2 00:44:20 10° WSW 00:49:20 32° NW 00:54:23 10° N
STARLINK-35 4.4 00:46:35 10° W 00:49:55 35° NNW 00:53:16 10° NE
STARLINK-1028 4.2 00:46:15 10° WSW 00:50:18 52° NNW 00:54:22 10° NE
STARLINK-1375 4.2 00:46:33 10° NW 00:50:31 60° NNE 00:54:29 10° ESE
STARLINK-51 4.5 00:48:18 10° W 00:51:39 35° NNW 00:55:00 10° NE
CZ-2C R/B 3.4 00:49:38 10° NNE 00:54:42 51° E 00:59:43 10° S
STARLINK-1350 4.1 00:50:52 10° NW 00:54:52 65° NNE 00:58:51 10° ESE
STARLINK-1021 4.3 00:51:18 10° WSW 00:55:20 48° NNW 00:59:22 10° NE
CZ-3 R/B 4.0 00:53:32 10° WSW 01:23:25 43° S 01:31:48 10° ESE
